Location: Buckland
(65.9785°N, 161.1281°W)
Time: 21:11:02
(UTC+00:00)

SPROUT - Pass Details

Date: 25 January 2021
Orbit: 597 x 610 km, 97.9° (Epoch: 07 March)

Event Time Altitude Azimuth Distance (km) Brightness Sun altitude
Exits shadow 06:53:49 11° 4° (N) 1,888 ? -28.9°
Drops below altitude 10° 06:54:26 10° 356° (N) 1,974 ? -29.0°
Sets 06:57:52 0° 327° (NNW) 2,890 ? -29.3°
